[[[{"header":{"parameterUnit":"kt","parameterCategory":2,"dx":1,"dy":1,"la1":30.253999710083008,"la2":30.299108505249023,"lo1":-89.0895004272461,"lo2":-89.04439544677734,"nx":28,"ny":28,"refTime":"2022-10-26T21:00:00:Z","depth":0,"parameterNumber":1,"parameterNumberName":"U-component_of_WINDS"},"data":[-5.4135,-5.4346,-5.4374,-5.4628,-5.4696,-5.4875,-5.4947,-5.5044,-5.5129,-5.5345,-5.5474,-5.5524,-5.562,-5.5781,-5.5922,-5.5941,-5.5999,-5.6054,-5.6067,-5.5797,-5.5762,-5.5728,-5.5679,-5.6066,-5.6067,-5.6341,-5.6344,-5.6345,-5.3937,-5.4007,-5.4149,-5.4306,-5.4429,-5.4394,-5.4515,-5.462,-5.478,-5.4886,-5.5014,-5.5207,-5.5362,-5.544,-5.5595,-5.5694,-5.5686,-5.5734,-5.5726,-5.5742,-5.5456,-5.5404,-5.5738,-5.5738,-5.5738,-5.5738,-5.5738,-5.5738,-5.3583,-5.3709,-5.3819,-5.3974,-5.4061,-5.4166,-5.429,-5.4348,-5.4488,-5.4652,-5.4658,-5.484,-5.495,-5.5149,-5.5223,-5.5366,-5.5317,-5.5378,-5.5394,-5.5408,-5.5421,-5.5021,-5.5393,-5.5392,-5.5392,-5.5391,-5.539,0,-5.3333,-5.3348,-5.3485,-5.3633,-5.3747,-5.3863,-5.3974,-5.4052,-5.4092,-5.4206,-5.4372,-5.4473,-5.4672,-5.4832,-5.4982,-5.5047,-5.5021,-5.5021,-5.5063,-5.5062,-5.5043,-5.5056,-5.4587,-5.501,-5.5007,-5.5004,-5.5003,-5.5001,-5.2978,-5.312,-5.3249,-5.3342,-5.341,-5.356,-5.3655,-5.3679,-5.3779,-5.3919,-5.4029,-5.4189,-5.4319,-5.4581,-5.4646,-5.4795,-5.4784,-5.4942,-5.4806,-5.48,-5.4787,-5.4778,-5.4792,-5.4968,-5.4972,-5.4976,-5.4978,0,-5.2775,-5.2819,-5.3048,-5.3162,-5.3194,-5.3343,-5.3439,-5.3566,-5.3607,-5.3786,-5.383,-5.3895,-5.4058,-5.4098,-5.4292,-5.4308,-5.4554,-5.454,-5.4516,-5.4516,-5.4661,-5.4647,-5.5128,-5.5192,-5.4792,-5.4796,-5.4799,0,-5.2489,-5.2675,-5.2729,-5.286,-5.3068,-5.3087,-5.3292,-5.3348,-5.3442,-5.3583,-5.3559,-5.3693,-5.3722,-5.3862,-5.3885,-5.4093,-5.413,-5.4154,-5.4158,-5.4156,-5.4153,-5.4209,-5.419,-5.4161,-5.4159,-5.4156,-5.4154,0,-5.2166,-5.2413,-5.2626,-5.2689,-5.2828,-5.2927,-5.299,-5.3095,-5.3188,-5.3314,-5.3375,-5.3521,-5.3601,-5.3715,-5.3744,-5.365,-5.3999,-5.3876,-5.4024,-5.4024,-5.4099,-5.4093,-5.451,-5.4151,-5.4151,-5.415,-5.4149,0,-5.1941,-5.2068,-5.237,-5.2485,-5.2548,-5.2689,-5.2833,-5.2962,-5.3075,-5.3098,-5.3198,-5.3186,-5.3371,-5.3246,-5.35,-5.337,-5.3451,-5.3491,-5.3502,-5.352,-5.3379,-5.3609,-5.4001,-5.4044,-5.3538,-5.3533,-5.3529,0,-5.156,-5.1876,-5.1893,-5.218,-5.233,-5.2293,-5.2449,-5.2549,-5.2593,-5.2727,-5.2775,-5.2929,-5.2844,-5.2897,-5.3018,-5.3074,-5.3244,-5.3052,-5.3247,-5.3254,-5.3218,-5.358,-5.3628,-5.3911,-5.3464,-5.3471,-5.3476,0,-5.127,-5.1435,-5.1485,-5.1558,-5.1692,-5.1818,-5.1998,-5.2153,-5.2241,-5.2356,-5.2507,-5.2723,-5.2668,-5.2756,-5.2761,-5.2886,-5.313,-5.2809,-5.2812,-5.2866,-5.3435,-5.348,-5.3527,-5.3106,-5.3114,-5.312,-5.3425,0,-5.092,-5.1083,-5.1219,-5.1379,-5.1482,-5.1663,-5.1703,-5.1806,-5.18,-5.1842,-5.2064,-5.2156,-5.2314,-5.2378,-5.2373,-5.2644,-5.2605,-5.2544,-5.2425,-5.2662,-5.2763,-5.2804,-5.227,-5.2267,-5.2264,-5.2262,0,0,-5.0545,-5.0778,-5.0791,-5.0964,-5.1052,-5.1009,-5.1199,-5.1279,-5.1443,-5.1505,-5.1438,-5.1756,-5.1833,-5.2099,-5.2176,-5.224,-5.2292,-5.2208,-5.2548,-5.258,-5.261,-5.2717,-5.276,-5.2257,-5.2256,-5.2255,-5.2254,0,-5.0425,-5.0504,-5.0691,-5.0775,-5.0899,-5.0933,-5.0978,-5.1093,-5.1128,-5.1345,-5.1307,-5.1445,-5.1698,-5.1785,-5.1863,-5.2177,-5.214,-5.2222,-5.2378,-5.2519,-5.2555,-5.2586,-5.2699,-5.2739,-5.2248,-5.2248,-5.2248,0,-5.0146,-5.0231,-5.0325,-5.0521,-5.0602,-5.0758,-5.0642,-5.0811,-5.0927,-5.0871,-5.1087,-5.1143,-5.1263,-5.1509,-5.162,-5.1563,-5.1999,-5.1868,-5.1886,-5.19,-5.2039,-5.2081,-5.2119,-5.162,-5.1618,-5.1616,0,0,-5.0037,-5.0188,-5.0284,-5.0498,-5.0552,-5.0605,-5.0691,-5.0694,-5.0802,-5.0845,-5.0916,-5.1023,-5.117,-5.1267,-5.1407,-5.1671,-5.1697,-5.1789,-5.1819,-5.1843,-5.1869,-5.2014,-5.2056,-5.1607,-5.1606,-5.1606,0,0,-4.9985,-5.0105,-5.008,-5.0332,-5.0436,-5.0546,-5.0675,-5.0647,-5.0776,-5.076,-5.0773,-5.0802,-5.1032,-5.1089,-5.0965,-5.1365,-5.1246,-5.1276,-5.1319,-5.1357,-5.1387,-5.1368,-5.0859,0,0,0,0,0,-4.9882,-5.009,-5.0066,-5.0114,-5.0361,-5.0559,-5.0591,-5.0606,-5.0521,-5.0624,-5.0679,-5.0633,-5.1025,-5.0916,-5.0964,-5.1101,-5.1492,-5.1512,-5.1532,-5.1649,-5.1689,-5.1722,0,0,0,0,0,0,-4.9901,-4.9959,-5.006,-5.0178,-5.0234,-5.0552,-5.0412,-5.0422,-5.0511,-5.0499,-5.0624,-5.0637,-5.0653,-5.0892,-5.0935,-5.1066,-5.0845,-5.15,-5.1517,-5.1533,-5.1663,-5.1695,-5.1723,0,0,0,0,0,-4.9916,-4.9963,-5.0356,-5.0175,-5.0224,-5.0294,-5.0404,-5.0411,-5.048,-5.0566,-5.0577,-5.0484,-5.0657,-5.0694,-5.0918,-5.1046,-5.0815,-5.0831,-5.1511,-5.1525,-5.1537,-5.1679,0,0,0,0,0,0,-4.9927,-4.9971,-5.0366,-5.0381,-5.0097,-5.0276,-5.0305,-5.0402,-5.0541,-5.0555,-5.0425,-5.0414,-5.0662,-5.069,-5.0718,-5.1038,-5.0791,-5.0808,-5.0818,-5.1522,-5.1532,-5.1542,0,0,0,0,0,0,-4.9946,-4.9985,-5.0374,-5.0274,-5.0279,-5.026,-5.0285,-5.0477,-5.0544,-5.0393,-5.0388,-5.0419,-5.0619,-5.0688,-5.071,-5.1009,-5.0773,-5.0788,-5.0799,-5.0806,-5.153,-5.1539,0,0,0,0,0,0,-4.9962,-4.9996,-5.027,-5.0274,-5.0277,-5.045,-5.043,-5.0683,-5.0458,-5.0388,-5.0438,-5.0429,-5.0618,-5.0641,-5.0704,-5.0995,-5.1006,-5.0773,-5.0784,-5.0791,-5.0796,0,0,0,0,0,0,0,-4.9976,-4.9749,-5.0275,-5.0273,-5.0276,-5.0523,-5.0527,-5.0531,-5.0456,-5.0448,-5.044,-5.0433,-5.0684,-5.0701,-5.0719,-5.0983,0,0,-5.0772,-5.0779,0,0,0,0,0,0,0,0,-4.9736,-4.9746,-5.0276,-5.0279,-5.0282,-5.0524,-5.0527,-5.053,-5.0455,-5.0448,-5.0442,-5.0436,-5.0689,-5.0703,-5.0717,0,0,0,0,0,0,0,0,0,0,0,0,0,0,0,-5.0276,-5.0279,0,-5.0524,-5.0527,-5.053,-5.0454,-5.0449,-5.0443,-5.0439,-5.0693,-5.0704,-5.0716,0,0,0,0,0,0,0,0,0,0,0,0,0,0,0,0,0,0,0,0,0,0,0,0,0,0,0,0,0,0,0,0,0,0,0,0,0,0,0,0,0,0,0,0,0,0,0,0,0,0,0,0,0,0,0,0,0,0,0,0,0,0,0,0,0,0,0,0,0]}],[{"header":{"parameterUnit":"kt","parameterCategory":2,"dx":1,"dy":1,"la1":30.253999710083008,"la2":30.299108505249023,"lo1":-89.0895004272461,"lo2":-89.04439544677734,"nx":28,"ny":28,"refTime":"2022-10-26T21:00:00:Z","depth":0,"parameterNumber":2,"parameterNumberName":"V-component_of_WINDS"},"data":[-3.7734,-3.7743,-3.7762,-3.7779,-3.78,-3.7814,-3.7826,-3.7842,-3.7859,-3.7878,-3.7892,-3.7912,-3.7936,-3.7956,-3.7971,-3.798,-3.7984,-3.7971,-3.7982,-3.8023,-3.803,-3.8036,-3.8035,-3.7972,-3.7972,-3.7937,-3.7936,-3.7936,-3.7754,-3.7774,-3.779,-3.7819,-3.7832,-3.7855,-3.788,-3.7889,-3.7901,-3.7924,-3.794,-3.7959,-3.7975,-3.8006,-3.8025,-3.8027,-3.8039,-3.803,-3.8029,-3.8032,-3.8077,-3.8076,-3.802,-3.802,-3.802,-3.802,-3.802,-3.802,-3.7795,-3.7801,-3.7831,-3.7849,-3.7869,-3.7888,-3.7896,-3.7922,-3.7938,-3.7963,-3.7984,-3.7999,-3.8025,-3.806,-3.8076,-3.8087,-3.81,-3.8097,-3.8096,-3.8094,-3.8088,-3.8129,-3.8092,-3.8092,-3.8092,-3.8093,-3.8093,0,-3.7831,-3.7847,-3.7867,-3.789,-3.7905,-3.7926,-3.7949,-3.7954,-3.7997,-3.8009,-3.8027,-3.8041,-3.8068,-3.8086,-3.811,-3.8129,-3.8153,-3.816,-3.8157,-3.8145,-3.813,-3.8134,-3.8203,-3.816,-3.8161,-3.8162,-3.8162,-3.8162,-3.7872,-3.7879,-3.7922,-3.7932,-3.795,-3.7967,-3.798,-3.8019,-3.8031,-3.8065,-3.8067,-3.8088,-3.8106,-3.8131,-3.8162,-3.8182,-3.8194,-3.8175,-3.8198,-3.8185,-3.819,-3.8188,-3.8187,-3.8169,-3.8168,-3.8168,-3.8167,0,-3.7892,-3.7928,-3.7945,-3.7988,-3.7999,-3.8003,-3.8039,-3.8047,-3.8073,-3.8087,-3.8092,-3.8132,-3.815,-3.8185,-3.8213,-3.823,-3.823,-3.8243,-3.822,-3.8223,-3.8207,-3.8207,-3.8156,-3.815,-3.8219,-3.8218,-3.8218,0,-3.7941,-3.7948,-3.8,-3.8009,-3.8017,-3.8057,-3.8063,-3.8087,-3.8114,-3.8125,-3.8161,-3.8171,-3.8215,-3.8229,-3.8255,-3.8262,-3.8269,-3.8281,-3.8288,-3.8277,-3.8275,-3.8283,-3.8285,-3.8307,-3.8307,-3.8307,-3.8307,0,-3.7967,-3.8007,-3.8021,-3.8035,-3.8084,-3.8089,-3.811,-3.8142,-3.8156,-3.8179,-3.8188,-3.8213,-3.8226,-3.8244,-3.8277,-3.829,-3.8288,-3.8314,-3.8301,-3.83,-3.8298,-3.8297,-3.8245,-3.8308,-3.8308,-3.8308,-3.8308,0,-3.8013,-3.8039,-3.8055,-3.8096,-3.8105,-3.8114,-3.8142,-3.8159,-3.819,-3.8208,-3.8227,-3.8256,-3.8269,-3.8291,-3.8307,-3.8315,-3.8325,-3.834,-3.8339,-3.8341,-3.8364,-3.8327,-3.8275,-3.827,-3.8343,-3.8343,-3.8344,0,-3.8031,-3.8059,-3.8096,-3.811,-3.8128,-3.8168,-3.8179,-3.8207,-3.8233,-3.825,-3.8277,-3.8297,-3.8322,-3.8333,-3.8337,-3.8365,-3.8355,-3.8368,-3.8387,-3.8388,-3.8375,-3.8329,-3.8311,-3.8283,-3.8348,-3.8348,-3.8347,0,-3.8052,-3.8115,-3.8116,-3.8134,-3.8181,-3.8197,-3.821,-3.8241,-3.825,-3.8279,-3.829,-3.832,-3.8339,-3.8358,-3.8385,-3.8387,-3.8363,-3.8407,-3.8409,-3.8395,-3.8355,-3.8337,-3.8333,-3.838,-3.838,-3.8379,-3.8351,0,-3.8106,-3.8127,-3.8131,-3.8175,-3.8194,-3.8207,-3.8249,-3.8263,-3.8287,-3.8315,-3.8333,-3.8368,-3.8398,-3.8404,-3.8429,-3.8424,-3.843,-3.8451,-3.8474,-3.8445,-3.8436,-3.8433,-3.8483,-3.8484,-3.8485,-3.8486,0,0,-3.8114,-3.8146,-3.8189,-3.8206,-3.8224,-3.8268,-3.8278,-3.8301,-3.8348,-3.8358,-3.8372,-3.842,-3.8449,-3.8466,-3.846,-3.8474,-3.8475,-3.8485,-3.8459,-3.8456,-3.8453,-3.8443,-3.8439,-3.8487,-3.8487,-3.8488,-3.8488,0,-3.8143,-3.8175,-3.8187,-3.8213,-3.8254,-3.8284,-3.8286,-3.8335,-3.8354,-3.8374,-3.8409,-3.8425,-3.8465,-3.8489,-3.8506,-3.8484,-3.8509,-3.8491,-3.8464,-3.8466,-3.8461,-3.8458,-3.8447,-3.8443,-3.849,-3.849,-3.849,0,-3.8169,-3.8206,-3.8217,-3.8266,-3.8294,-3.8313,-3.8348,-3.8368,-3.8382,-3.843,-3.8449,-3.8474,-3.8511,-3.8524,-3.8532,-3.8544,-3.8537,-3.8549,-3.8545,-3.8546,-3.855,-3.8545,-3.854,-3.8599,-3.8599,-3.86,0,0,-3.8188,-3.8211,-3.8264,-3.8276,-3.829,-3.8337,-3.8352,-3.838,-3.8414,-3.8427,-3.8461,-3.8491,-3.8514,-3.8528,-3.8553,-3.8561,-3.8571,-3.8561,-3.8555,-3.8551,-3.855,-3.8552,-3.8547,-3.86,-3.86,-3.86,0,0,-3.8198,-3.8261,-3.8281,-3.8301,-3.8332,-3.8385,-3.839,-3.8415,-3.8442,-3.8446,-3.8492,-3.8502,-3.8515,-3.8539,-3.8545,-3.8561,-3.8584,-3.8584,-3.8545,-3.8539,-3.8534,-3.8528,-3.8586,0,0,0,0,0,-3.8251,-3.8253,-3.8271,-3.8281,-3.8344,-3.8375,-3.8383,-3.8423,-3.8437,-3.8439,-3.8471,-3.8499,-3.8551,-3.8557,-3.8565,-3.8559,-3.861,-3.8609,-3.8607,-3.856,-3.8553,-3.8548,0,0,0,0,0,0,-3.8256,-3.8268,-3.8271,-3.8324,-3.8338,-3.8376,-3.8409,-3.842,-3.8438,-3.8443,-3.8492,-3.85,-3.8533,-3.8556,-3.8562,-3.8555,-3.8583,-3.861,-3.8608,-3.8607,-3.8558,-3.8552,-3.8547,0,0,0,0,0,-3.8259,-3.8269,-3.836,-3.8324,-3.8337,-3.8389,-3.8409,-3.8418,-3.8433,-3.8484,-3.8494,-3.8462,-3.8532,-3.8541,-3.856,-3.8551,-3.8579,-3.8581,-3.8609,-3.8608,-3.8607,-3.8555,0,0,0,0,0,0,-3.8262,-3.8277,-3.8363,-3.8368,-3.8327,-3.8388,-3.8399,-3.8417,-3.8474,-3.8484,-3.8456,-3.8459,-3.8531,-3.8538,-3.8544,-3.8547,-3.8575,-3.8578,-3.8579,-3.8608,-3.8607,-3.8606,0,0,0,0,0,0,-3.8272,-3.8281,-3.8366,-3.8368,-3.8374,-3.8386,-3.8396,-3.8419,-3.8474,-3.8443,-3.8448,-3.8457,-3.8522,-3.8536,-3.8541,-3.8575,-3.8573,-3.8575,-3.8577,-3.8578,-3.8607,-3.8606,0,0,0,0,0,0,-3.8277,-3.8284,-3.8367,-3.8371,-3.8377,-3.8438,-3.8407,-3.8468,-3.8477,-3.844,-3.8479,-3.848,-3.8519,-3.8525,-3.8539,-3.857,-3.8574,-3.8573,-3.8574,-3.8575,-3.8576,0,0,0,0,0,0,0,-3.828,-3.8219,-3.8333,-3.8374,-3.8379,-3.8416,-3.8418,-3.8419,-3.8477,-3.8478,-3.8479,-3.848,-3.8559,-3.8562,-3.8565,-3.8566,0,0,-3.8572,-3.8574,0,0,0,0,0,0,0,0,-3.8217,-3.8218,-3.8333,-3.8334,-3.8335,-3.8417,-3.8418,-3.8419,-3.8478,-3.8478,-3.8479,-3.8479,-3.856,-3.8562,-3.8564,0,0,0,0,0,0,0,0,0,0,0,0,0,0,0,-3.8333,-3.8334,0,-3.8417,-3.8418,-3.8419,-3.8478,-3.8478,-3.8479,-3.8479,-3.8561,-3.8562,-3.8564,0,0,0,0,0,0,0,0,0,0,0,0,0,0,0,0,0,0,0,0,0,0,0,0,0,0,0,0,0,0,0,0,0,0,0,0,0,0,0,0,0,0,0,0,0,0,0,0,0,0,0,0,0,0,0,0,0,0,0,0,0,0,0,0,0,0,0,0,0]}]]]